Location: Goettingen
(51.5300°N, 9.9433°E)
Time: 10:51:46
(UTC+02:00)

ISS - Pass Details

Date: 19 May 2019
Orbit: 407 x 410 km, 51.6° (Epoch: 21 May)

Event Time Altitude Azimuth Distance (km) Brightness Sun altitude
Rises 00:27:45 0° 258° (WSW) 2,332 0.0 -18.0°
Reaches altitude 10° 00:29:50 10° 258° (WSW) 1,472 -1.0 -18.1°
Maximum altitude 00:33:08 84° 172° (S) 416 -4.0 -18.2°
Drops below altitude 10° 00:36:27 10° 82° (E) 1,476 -1.0 -18.3°
Sets 00:38:33 0° 82° (E) 2,339 0.0 -18.3°
